Home > Weather > Bimbo > Past weeks

Flag for Central African Republic Weather for the Past 2 Weeks in Bimbo, Central African Republic

Now
77 °F

Warm.


Feels Like: 78 °F
Forecast: 73 / 95 °F
Wind: 3 mph from North

Location: Bangui Airport

Current Time: May 1, 2016 at 8:48:27 PM

Latest Report: May 1, 2016 at 8:00 PM


Visibility: N/A

Pressure: 29.80 "Hg

Humidity: 89%

Dew Point: 73 °F

Location of BimboLocation

Historic Weather in Bimbo — Graph

°F

Bimbo Temperature Yesterday

Maximum temperature yesterday: 95 °F (at 3:00 PM)
Minimum temperature yesterday: 73 °F (at 12:00 AM)
Average temperature yesterday: 83 °F

High & Low Weather Summary for the Past Weeks

 TemperatureHumidityPressure
High99 °F (Apr 21, 3:00 PM)100% (Apr 16, 9:00 PM)30.01 "Hg (Apr 16, 9:00 PM)
Low36 °F (Apr 21, 4:00 PM)44% (Apr 19, 1:00 PM)29.68 "Hg (Apr 24, 4:00 PM)
Average82 °F81%29.83 "Hg
* Reported Apr 16 7:00 PM — May 1 7:00 PM, Bimbo, Weather by CustomWeather, © 2016

Note: Actual official high and low records may vary slightly from our data, if they occured in-between our weather recording intervals... More about our weather records

Advertising

Bimbo Weather History for the Previous 24 Hours

Scroll right to see more
 ConditionsComfort  
Time TempWeatherWind HumidityBarometerVisibility
7:00 PM
Sun, May 1
79 °FClear.7 mph84%29.80 "Hg10 mi
6:00 PM79 °FPassing clouds.9 mph89%29.77 "HgN/A
5:00 PM82 °FPassing clouds.12 mph79%29.74 "HgN/A
4:00 PM84 °FThunderstorms. Scattered clouds.14 mph74%29.74 "HgN/A
3:00 PM79 °FThunderstorms. Scattered clouds.18 mph94%29.74 "Hg4 mi
2:00 PM95 °FScattered clouds.7 mph50%29.74 "HgN/A
1:00 PM93 °FScattered clouds.8 mph53%29.77 "HgN/A
12:00 PM93 °FScattered clouds.8 mph56%29.80 "HgN/A
11:00 AM91 °FScattered clouds.8 mph59%29.86 "HgN/A
10:00 AM90 °FScattered clouds.10 mph59%29.86 "HgN/A
9:00 AM88 °FPassing clouds.10 mph62%29.86 "HgN/A
7:00 AM81 °FPassing clouds.2 mph84%29.83 "Hg5 mi
6:00 AM77 °FPassing clouds.No wind100%29.80 "Hg5 mi
5:00 AM79 °FPassing clouds.No wind94%29.80 "Hg5 mi
4:00 AM79 °FPassing clouds.No wind89%29.80 "Hg5 mi
3:00 AM79 °FPassing clouds.2 mph89%29.80 "Hg5 mi
2:00 AM79 °FClear.No wind89%29.77 "Hg5 mi
1:00 AM79 °FClear.3 mph89%29.80 "Hg5 mi
12:00 AM79 °FClear.2 mph89%29.83 "Hg5 mi
11:00 PM
Sat, Apr 30
81 °FClear.2 mph84%29.83 "Hg5 mi
10:00 PM81 °FClear.2 mph84%29.83 "Hg5 mi
9:00 PM82 °FClear.2 mph79%29.83 "Hg5 mi
8:00 PM82 °FClear.No wind84%29.80 "Hg5 mi
Weather by CustomWeather, © 2016

See weather overviewHow to use our weather pages